Precipitable_Water
0.37 0.27 0.24 0.22 0.24 0.28 0.31 0.32 0.32 0.33 0.33 0.33 0.33 0.32 0.30 0.30 0.30 0.33 0.35 0.37 0.39 0.34 0.32 0.33 0.33 0.33 0.34 0.37 0.38 0.39 0.40 0.39 0.39 0.40 0.42 0.45 0.47 0.48 0.48 0.47 0.48 0.48 0.49 0.54 0.55 0.57 0.59 0.62 0.62 0.66 0.66 0.67 0.68 0.70 0.72 0.72 0.72 0.72 0.71 0.71 0.69 0.71 0.72 0.71 0.71 0.70 0.70 0.68 0.66 0.66 0.65 0.62 0.63 0.65 0.66 0.67 0.68 0.70 0.71 0.73 0.76 0.77 0.78 0.78 0.77 0.76
0.37 0.26 0.25 0.27 0.29 0.31 0.34 0.36 0.36 0.34 0.35 0.33 0.32 0.31 0.29 0.31 0.28 0.34 0.36 0.39 0.41 0.35 0.33 0.36 0.34 0.34 0.35 0.38 0.40 0.40 0.39 0.37 0.38 0.40 0.41 0.43 0.46 0.48 0.49 0.49 0.49 0.50 0.54 0.54 0.54 0.57 0.60 0.63 0.63 0.65 0.65 0.66 0.63 0.68 0.72 0.71 0.72 0.72 0.72 0.68 0.66 0.67 0.67 0.67 0.67 0.67 0.66 0.65 0.64 0.63 0.61 0.61 0.61 0.62 0.63 0.61 0.63 0.64 0.67 0.69 0.70 0.69 0.66 0.62 0.59 0.58
0.27 0.23 0.27 0.31 0.34 0.36 0.36 0.36 0.38 0.36 0.34 0.34 0.32 0.31 0.30 0.30 0.34 0.37 0.38 0.40 0.40 0.38 0.33 0.36 0.33 0.33 0.36 0.38 0.41 0.42 0.39 0.40 0.42 0.42 0.43 0.45 0.46 0.47 0.49 0.50 0.51 0.51 0.51 0.52 0.54 0.57 0.59 0.62 0.63 0.63 0.64 0.63 0.64 0.69 0.70 0.71 0.71 0.70 0.69 0.68 0.67 0.67 0.66 0.67 0.67 0.67 0.64 0.65 0.64 0.63 0.61 0.62 0.58 0.58 0.58 0.58 0.58 0.59 0.58 0.56 0.54 0.51 0.50 0.49 0.48 0.47
0.23 0.26 0.30 0.35 0.36 0.35 0.35 0.36 0.36 0.36 0.36 0.33 0.32 0.30 0.27 0.32 0.31 0.28 0.36 0.40 0.40 0.38 0.34 0.36 0.33 0.34 0.38 0.40 0.41 0.44 0.44 0.44 0.46 0.46 0.47 0.48 0.48 0.49 0.50 0.51 0.51 0.51 0.51 0.51 0.53 0.55 0.58 0.61 0.62 0.62 0.62 0.61 0.63 0.66 0.67 0.68 0.67 0.68 0.69 0.68 0.68 0.67 0.66 0.67 0.66 0.66 0.65 0.64 0.62 0.62 0.63 0.57 0.53 0.49 0.49 0.49 0.48 0.47 0.47 0.46 0.46 0.45 0.44 0.43 0.42 0.41
0.25 0.31 0.38 0.38 0.38 0.37 0.34 0.36 0.35 0.34 0.31 0.34 0.34 0.32 0.31 0.32 0.34 0.34 0.35 0.39 0.41 0.40 0.41 0.38 0.33 0.31 0.35 0.35 0.37 0.42 0.46 0.46 0.46 0.47 0.48 0.50 0.51 0.52 0.53 0.53 0.53 0.52 0.52 0.52 0.53 0.54 0.57 0.59 0.60 0.60 0.62 0.62 0.62 0.63 0.66 0.68 0.67 0.68 0.66 0.66 0.66 0.66 0.65 0.65 0.65 0.65 0.64 0.62 0.60 0.59 0.54 0.48 0.46 0.45 0.44 0.43 0.42 0.42 0.41 0.40 0.39 0.38 0.38 0.37 0.36 0.35
0.29 0.36 0.41 0.38 0.37 0.36 0.35 0.33 0.34 0.33 0.30 0.32 0.36 0.35 0.35 0.37 0.35 0.37 0.39 0.38 0.35 0.32 0.38 0.36 0.26 0.24 0.32 0.36 0.37 0.40 0.43 0.43 0.46 0.46 0.46 0.48 0.49 0.51 0.50 0.50 0.52 0.53 0.54 0.53 0.53 0.54 0.56 0.58 0.61 0.60 0.62 0.61 0.62 0.62 0.66 0.67 0.69 0.69 0.67 0.65 0.65 0.66 0.65 0.65 0.65 0.65 0.63 0.61 0.56 0.50 0.44 0.42 0.41 0.40 0.39 0.38 0.37 0.36 0.36 0.35 0.35 0.35 0.35 0.34 0.33 0.33
0.33 0.39 0.38 0.36 0.35 0.34 0.34 0.32 0.36 0.36 0.31 0.30 0.33 0.42 0.39 0.38 0.38 0.38 0.37 0.37 0.29 0.26 0.36 0.42 0.28 0.22 0.32 0.33 0.37 0.40 0.41 0.42 0.46 0.46 0.47 0.48 0.49 0.50 0.50 0.51 0.51 0.51 0.52 0.55 0.56 0.56 0.55 0.57 0.58 0.59 0.61 0.61 0.61 0.63 0.67 0.68 0.69 0.69 0.66 0.66 0.64 0.65 0.64 0.64 0.63 0.62 0.61 0.56 0.51 0.46 0.44 0.41 0.39 0.37 0.37 0.36 0.36 0.35 0.34 0.34 0.34 0.34 0.33 0.33 0.33 0.33
0.37 0.36 0.37 0.37 0.35 0.33 0.32 0.30 0.36 0.37 0.34 0.30 0.41 0.44 0.42 0.40 0.38 0.37 0.38 0.37 0.34 0.40 0.42 0.42 0.39 0.28 0.23 0.28 0.38 0.41 0.41 0.42 0.43 0.46 0.47 0.48 0.49 0.50 0.51 0.51 0.51 0.51 0.51 0.53 0.55 0.56 0.56 0.57 0.57 0.58 0.61 0.62 0.62 0.65 0.67 0.67 0.68 0.67 0.65 0.65 0.64 0.65 0.63 0.62 0.61 0.59 0.57 0.51 0.47 0.44 0.42 0.40 0.38 0.36 0.35 0.35 0.34 0.34 0.34 0.33 0.33 0.33 0.33 0.33 0.33 0.32
0.38 0.34 0.34 0.33 0.33 0.32 0.30 0.34 0.40 0.41 0.36 0.38 0.46 0.46 0.42 0.42 0.42 0.42 0.40 0.38 0.38 0.37 0.30 0.36 0.40 0.30 0.23 0.29 0.38 0.41 0.38 0.39 0.41 0.44 0.46 0.48 0.49 0.51 0.51 0.52 0.52 0.52 0.52 0.53 0.54 0.55 0.56 0.56 0.57 0.60 0.60 0.62 0.65 0.66 0.66 0.66 0.67 0.66 0.66 0.65 0.65 0.63 0.61 0.58 0.57 0.54 0.52 0.48 0.45 0.43 0.41 0.38 0.38 0.36 0.35 0.35 0.34 0.34 0.33 0.32 0.32 0.33 0.33 0.32 0.32 0.32
0.41 0.40 0.39 0.38 0.35 0.31 0.37 0.41 0.43 0.43 0.36 0.43 0.46 0.47 0.46 0.46 0.45 0.43 0.40 0.39 0.38 0.35 0.26 0.33 0.37 0.28 0.22 0.29 0.34 0.39 0.38 0.37 0.40 0.43 0.45 0.48 0.49 0.50 0.51 0.52 0.54 0.53 0.52 0.54 0.56 0.56 0.57 0.58 0.58 0.60 0.61 0.62 0.64 0.66 0.66 0.67 0.67 0.66 0.65 0.63 0.62 0.59 0.57 0.55 0.52 0.50 0.48 0.46 0.45 0.42 0.40 0.38 0.37 0.36 0.36 0.35 0.34 0.34 0.34 0.33 0.33 0.32 0.31 0.31 0.31 0.31
0.43 0.50 0.50 0.43 0.39 0.41 0.41 0.43 0.45 0.45 0.45 0.49 0.47 0.43 0.43 0.43 0.43 0.44 0.43 0.42 0.37 0.27 0.26 0.35 0.38 0.34 0.23 0.27 0.31 0.33 0.34 0.39 0.41 0.43 0.46 0.48 0.49 0.50 0.51 0.52 0.53 0.51 0.51 0.53 0.55 0.56 0.56 0.58 0.57 0.59 0.60 0.62 0.64 0.65 0.64 0.65 0.64 0.64 0.63 0.61 0.59 0.56 0.54 0.52 0.49 0.48 0.46 0.45 0.43 0.41 0.39 0.37 0.36 0.36 0.36 0.35 0.35 0.35 0.34 0.33 0.32 0.31 0.31 0.30 0.30 0.30
0.40 0.42 0.43 0.45 0.50 0.48 0.48 0.43 0.47 0.49 0.48 0.47 0.43 0.42 0.42 0.41 0.44 0.40 0.39 0.41 0.29 0.22 0.30 0.36 0.37 0.37 0.24 0.26 0.33 0.40 0.43 0.44 0.42 0.41 0.43 0.45 0.47 0.48 0.50 0.52 0.52 0.51 0.51 0.53 0.53 0.54 0.54 0.54 0.55 0.57 0.59 0.62 0.63 0.62 0.62 0.62 0.62 0.62 0.61 0.58 0.54 0.53 0.51 0.50 0.48 0.46 0.45 0.44 0.42 0.40 0.38 0.37 0.37 0.37 0.36 0.36 0.35 0.34 0.33 0.32 0.31 0.31 0.30 0.30 0.30 0.30
0.35 0.37 0.44 0.47 0.54 0.49 0.45 0.42 0.44 0.48 0.49 0.47 0.45 0.43 0.36 0.33 0.33 0.28 0.32 0.25 0.25 0.22 0.30 0.37 0.38 0.33 0.28 0.30 0.36 0.39 0.41 0.43 0.45 0.44 0.44 0.45 0.46 0.47 0.48 0.51 0.51 0.51 0.52 0.52 0.52 0.53 0.53 0.53 0.53 0.55 0.59 0.61 0.61 0.59 0.60 0.61 0.61 0.59 0.57 0.54 0.51 0.49 0.49 0.48 0.46 0.45 0.44 0.42 0.40 0.39 0.38 0.38 0.38 0.37 0.37 0.36 0.35 0.34 0.33 0.32 0.31 0.30 0.30 0.29 0.29 0.29
0.35 0.43 0.44 0.45 0.47 0.50 0.48 0.38 0.39 0.40 0.45 0.45 0.42 0.40 0.36 0.30 0.29 0.24 0.27 0.30 0.28 0.31 0.36 0.36 0.42 0.30 0.33 0.37 0.42 0.41 0.45 0.47 0.47 0.47 0.47 0.47 0.47 0.47 0.48 0.49 0.51 0.51 0.52 0.52 0.53 0.53 0.53 0.53 0.54 0.56 0.58 0.59 0.59 0.59 0.60 0.60 0.58 0.55 0.52 0.51 0.48 0.46 0.46 0.46 0.45 0.44 0.42 0.41 0.40 0.40 0.39 0.39 0.38 0.37 0.37 0.36 0.35 0.34 0.34 0.33 0.32 0.31 0.30 0.30 0.29 0.29
0.28 0.29 0.38 0.42 0.37 0.49 0.48 0.46 0.46 0.45 0.46 0.46 0.50 0.46 0.39 0.36 0.30 0.25 0.26 0.24 0.25 0.29 0.34 0.40 0.34 0.27 0.27 0.30 0.43 0.44 0.46 0.48 0.49 0.49 0.49 0.49 0.49 0.49 0.49 0.50 0.51 0.51 0.51 0.52 0.52 0.52 0.52 0.53 0.54 0.55 0.57 0.57 0.58 0.58 0.57 0.56 0.53 0.51 0.50 0.48 0.46 0.45 0.45 0.45 0.44 0.43 0.42 0.41 0.41 0.41 0.40 0.39 0.39 0.38 0.37 0.37 0.37 0.36 0.34 0.33 0.32 0.32 0.31 0.31 0.31 0.31
0.31 0.31 0.42 0.53 0.53 0.55 0.50 0.55 0.58 0.52 0.48 0.50 0.51 0.53 0.43 0.38 0.45 0.30 0.33 0.32 0.31 0.31 0.30 0.31 0.30 0.34 0.33 0.41 0.44 0.45 0.46 0.46 0.48 0.48 0.49 0.48 0.50 0.49 0.48 0.48 0.49 0.50 0.51 0.52 0.52 0.51 0.52 0.53 0.54 0.54 0.55 0.56 0.56 0.55 0.54 0.52 0.51 0.50 0.48 0.47 0.46 0.44 0.44 0.43 0.43 0.42 0.41 0.41 0.41 0.41 0.40 0.39 0.39 0.39 0.38 0.38 0.37 0.36 0.34 0.33 0.33 0.32 0.32 0.33 0.33 0.33
0.37 0.34 0.48 0.53 0.56 0.54 0.54 0.57 0.56 0.58 0.36 0.45 0.48 0.39 0.42 0.53 0.48 0.40 0.39 0.40 0.39 0.36 0.27 0.35 0.32 0.35 0.41 0.40 0.42 0.43 0.43 0.44 0.47 0.47 0.47 0.47 0.49 0.49 0.47 0.48 0.49 0.50 0.50 0.51 0.50 0.50 0.50 0.51 0.52 0.53 0.54 0.54 0.53 0.52 0.52 0.51 0.50 0.49 0.47 0.46 0.45 0.44 0.43 0.43 0.42 0.41 0.41 0.41 0.41 0.40 0.39 0.39 0.39 0.38 0.38 0.37 0.36 0.35 0.35 0.34 0.34 0.34 0.34 0.35 0.34 0.34
0.36 0.38 0.52 0.51 0.47 0.56 0.60 0.60 0.59 0.60 0.58 0.49 0.40 0.44 0.55 0.58 0.53 0.44 0.32 0.35 0.33 0.27 0.25 0.32 0.27 0.30 0.31 0.24 0.38 0.40 0.40 0.43 0.44 0.45 0.46 0.47 0.48 0.47 0.46 0.47 0.48 0.49 0.50 0.50 0.50 0.50 0.51 0.51 0.51 0.52 0.53 0.53 0.52 0.52 0.51 0.50 0.50 0.49 0.47 0.46 0.45 0.44 0.42 0.42 0.42 0.41 0.41 0.41 0.40 0.39 0.39 0.39 0.39 0.38 0.38 0.37 0.36 0.36 0.36 0.36 0.36 0.35 0.35 0.35 0.35 0.35
0.50 0.38 0.45 0.53 0.53 0.55 0.61 0.60 0.54 0.60 0.62 0.50 0.46 0.59 0.44 0.36 0.36 0.43 0.39 0.27 0.27 0.24 0.25 0.29 0.31 0.30 0.31 0.29 0.35 0.36 0.39 0.41 0.43 0.45 0.45 0.45 0.46 0.46 0.46 0.47 0.48 0.49 0.49 0.49 0.49 0.49 0.50 0.50 0.51 0.51 0.52 0.52 0.52 0.52 0.51 0.51 0.50 0.48 0.47 0.46 0.45 0.44 0.43 0.42 0.42 0.42 0.42 0.41 0.40 0.40 0.40 0.39 0.39 0.38 0.38 0.38 0.37 0.37 0.36 0.36 0.36 0.36 0.36 0.36 0.36 0.35
0.54 0.40 0.41 0.54 0.52 0.55 0.56 0.53 0.39 0.46 0.57 0.59 0.58 0.51 0.56 0.48 0.40 0.36 0.37 0.37 0.35 0.26 0.27 0.22 0.30 0.23 0.32 0.34 0.38 0.38 0.41 0.41 0.43 0.44 0.44 0.45 0.46 0.47 0.47 0.47 0.47 0.48 0.48 0.49 0.49 0.49 0.50 0.51 0.51 0.52 0.52 0.51 0.51 0.50 0.50 0.50 0.49 0.47 0.46 0.45 0.45 0.44 0.43 0.43 0.42 0.42 0.41 0.41 0.41 0.40 0.40 0.40 0.39 0.39 0.38 0.38 0.38 0.38 0.37 0.37 0.37 0.36 0.36 0.36 0.36 0.35
0.50 0.53 0.37 0.46 0.56 0.54 0.42 0.47 0.43 0.46 0.43 0.47 0.46 0.44 0.47 0.46 0.50 0.46 0.43 0.38 0.33 0.29 0.28 0.25 0.22 0.25 0.34 0.41 0.40 0.40 0.41 0.42 0.43 0.43 0.45 0.46 0.47 0.48 0.49 0.48 0.48 0.49 0.49 0.50 0.50 0.50 0.51 0.52 0.53 0.53 0.52 0.52 0.51 0.51 0.50 0.49 0.47 0.46 0.46 0.44 0.44 0.43 0.43 0.42 0.42 0.42 0.42 0.42 0.41 0.40 0.39 0.39 0.39 0.39 0.39 0.39 0.39 0.38 0.38 0.38 0.38 0.37 0.37 0.36 0.35 0.34
0.49 0.48 0.40 0.44 0.44 0.42 0.43 0.54 0.53 0.52 0.51 0.47 0.45 0.42 0.44 0.42 0.39 0.35 0.30 0.43 0.40 0.35 0.28 0.27 0.22 0.28 0.37 0.43 0.43 0.42 0.43 0.44 0.46 0.46 0.46 0.47 0.48 0.49 0.51 0.51 0.50 0.50 0.51 0.52 0.52 0.52 0.52 0.53 0.53 0.53 0.52 0.51 0.50 0.49 0.49 0.48 0.47 0.46 0.44 0.44 0.44 0.43 0.43 0.43 0.42 0.42 0.42 0.41 0.41 0.40 0.40 0.40 0.40 0.40 0.40 0.39 0.39 0.39 0.39 0.38 0.38 0.37 0.36 0.35 0.34 0.33
0.56 0.53 0.48 0.41 0.42 0.44 0.50 0.56 0.58 0.58 0.57 0.54 0.51 0.46 0.50 0.48 0.46 0.39 0.29 0.32 0.39 0.37 0.39 0.35 0.29 0.25 0.41 0.44 0.45 0.45 0.45 0.46 0.47 0.48 0.47 0.48 0.49 0.50 0.52 0.52 0.51 0.52 0.52 0.52 0.52 0.52 0.53 0.53 0.53 0.52 0.51 0.50 0.49 0.48 0.48 0.47 0.46 0.45 0.44 0.44 0.44 0.44 0.43 0.44 0.43 0.43 0.42 0.41 0.41 0.40 0.40 0.40 0.40 0.40 0.39 0.39 0.39 0.39 0.39 0.38 0.38 0.37 0.35 0.34 0.34 0.33
0.63 0.51 0.45 0.46 0.52 0.54 0.55 0.57 0.57 0.57 0.56 0.51 0.52 0.53 0.50 0.44 0.44 0.41 0.39 0.41 0.36 0.36 0.34 0.33 0.29 0.28 0.40 0.47 0.47 0.47 0.48 0.48 0.49 0.48 0.48 0.48 0.49 0.51 0.51 0.51 0.51 0.51 0.52 0.52 0.53 0.53 0.53 0.54 0.53 0.52 0.50 0.49 0.49 0.48 0.48 0.47 0.46 0.46 0.45 0.45 0.44 0.44 0.44 0.44 0.43 0.43 0.42 0.41 0.40 0.40 0.40 0.40 0.40 0.39 0.39 0.39 0.39 0.39 0.38 0.38 0.37 0.36 0.35 0.34 0.34 0.32
0.48 0.50 0.47 0.41 0.41 0.43 0.46 0.50 0.50 0.54 0.53 0.48 0.47 0.50 0.51 0.51 0.51 0.50 0.49 0.48 0.37 0.34 0.36 0.33 0.24 0.26 0.40 0.47 0.48 0.47 0.47 0.46 0.46 0.49 0.49 0.48 0.50 0.50 0.51 0.51 0.51 0.51 0.52 0.51 0.51 0.52 0.53 0.53 0.52 0.51 0.50 0.49 0.49 0.49 0.48 0.47 0.47 0.46 0.45 0.45 0.44 0.44 0.44 0.44 0.43 0.42 0.41 0.40 0.40 0.40 0.40 0.39 0.39 0.39 0.39 0.39 0.39 0.38 0.38 0.37 0.37 0.37 0.36 0.35 0.33 0.32
0.53 0.50 0.47 0.38 0.33 0.29 0.28 0.28 0.30 0.37 0.43 0.49 0.50 0.49 0.50 0.49 0.48 0.47 0.40 0.40 0.34 0.32 0.39 0.33 0.28 0.35 0.43 0.46 0.46 0.46 0.45 0.44 0.47 0.49 0.50 0.50 0.50 0.50 0.51 0.51 0.51 0.52 0.52 0.52 0.51 0.51 0.52 0.53 0.53 0.51 0.50 0.50 0.49 0.49 0.49 0.48 0.47 0.46 0.46 0.45 0.45 0.44 0.44 0.44 0.43 0.42 0.41 0.40 0.40 0.40 0.39 0.39 0.39 0.39 0.39 0.38 0.38 0.38 0.37 0.37 0.37 0.36 0.35 0.34 0.32 0.31
0.54 0.55 0.51 0.47 0.41 0.36 0.36 0.39 0.49 0.51 0.48 0.41 0.43 0.47 0.47 0.50 0.52 0.50 0.47 0.40 0.32 0.36 0.38 0.34 0.35 0.37 0.40 0.43 0.44 0.44 0.45 0.45 0.45 0.48 0.48 0.49 0.50 0.52 0.53 0.52 0.52 0.52 0.52 0.52 0.51 0.52 0.53 0.53 0.52 0.51 0.51 0.50 0.50 0.50 0.49 0.48 0.47 0.46 0.46 0.45 0.45 0.45 0.44 0.44 0.43 0.42 0.41 0.40 0.39 0.39 0.39 0.39 0.39 0.39 0.38 0.38 0.38 0.37 0.37 0.37 0.37 0.36 0.34 0.33 0.32 0.30
0.55 0.50 0.52 0.50 0.49 0.47 0.46 0.47 0.52 0.52 0.45 0.46 0.46 0.45 0.49 0.49 0.50 0.48 0.42 0.35 0.43 0.42 0.32 0.34 0.43 0.38 0.37 0.44 0.45 0.45 0.46 0.47 0.47 0.47 0.49 0.50 0.51 0.51 0.52 0.52 0.52 0.52 0.52 0.52 0.52 0.52 0.53 0.53 0.52 0.51 0.52 0.52 0.51 0.50 0.49 0.49 0.48 0.47 0.46 0.45 0.45 0.45 0.44 0.43 0.42 0.41 0.40 0.40 0.39 0.39 0.39 0.39 0.39 0.38 0.38 0.38 0.38 0.38 0.37 0.37 0.36 0.35 0.34 0.32 0.31 0.29
0.53 0.47 0.51 0.51 0.49 0.50 0.51 0.51 0.53 0.52 0.50 0.49 0.49 0.48 0.47 0.49 0.49 0.45 0.43 0.45 0.47 0.41 0.32 0.37 0.46 0.40 0.41 0.47 0.49 0.49 0.49 0.48 0.48 0.48 0.49 0.51 0.52 0.52 0.52 0.51 0.51 0.51 0.52 0.51 0.53 0.54 0.54 0.53 0.52 0.53 0.53 0.53 0.52 0.51 0.50 0.49 0.48 0.47 0.46 0.45 0.45 0.44 0.44 0.43 0.42 0.41 0.41 0.40 0.39 0.39 0.39 0.39 0.38 0.39 0.39 0.38 0.38 0.37 0.37 0.36 0.35 0.34 0.33 0.32 0.30 0.29
0.54 0.48 0.49 0.52 0.50 0.50 0.50 0.50 0.53 0.52 0.51 0.50 0.49 0.49 0.49 0.48 0.46 0.46 0.46 0.48 0.49 0.46 0.45 0.45 0.46 0.44 0.45 0.48 0.51 0.52 0.54 0.52 0.51 0.52 0.53 0.51 0.50 0.52 0.51 0.51 0.50 0.50 0.51 0.52 0.53 0.54 0.54 0.54 0.54 0.54 0.54 0.54 0.53 0.52 0.50 0.48 0.47 0.46 0.45 0.45 0.45 0.44 0.44 0.44 0.43 0.42 0.41 0.40 0.40 0.39 0.39 0.38 0.38 0.38 0.39 0.38 0.37 0.36 0.35 0.34 0.34 0.33 0.32 0.30 0.29 0.28
0.55 0.47 0.52 0.54 0.50 0.47 0.48 0.51 0.53 0.52 0.51 0.48 0.50 0.51 0.49 0.47 0.47 0.48 0.49 0.49 0.50 0.49 0.46 0.46 0.46 0.43 0.48 0.54 0.54 0.56 0.56 0.54 0.53 0.52 0.52 0.53 0.52 0.52 0.51 0.51 0.51 0.51 0.53 0.54 0.55 0.55 0.55 0.55 0.56 0.55 0.55 0.55 0.53 0.50 0.48 0.47 0.47 0.46 0.45 0.45 0.45 0.44 0.45 0.45 0.43 0.41 0.40 0.40 0.40 0.39 0.38 0.38 0.38 0.38 0.38 0.37 0.36 0.35 0.34 0.33 0.32 0.31 0.30 0.29 0.28 0.27
0.59 0.52 0.57 0.53 0.45 0.42 0.44 0.46 0.49 0.51 0.52 0.50 0.47 0.47 0.45 0.45 0.43 0.46 0.44 0.46 0.47 0.43 0.44 0.47 0.44 0.38 0.46 0.56 0.56 0.56 0.55 0.54 0.53 0.53 0.53 0.54 0.54 0.53 0.52 0.52 0.51 0.52 0.54 0.56 0.57 0.57 0.57 0.57 0.57 0.57 0.55 0.53 0.50 0.48 0.48 0.47 0.47 0.46 0.45 0.46 0.45 0.46 0.46 0.44 0.42 0.41 0.41 0.40 0.39 0.38 0.38 0.38 0.38 0.37 0.36 0.35 0.34 0.33 0.32 0.32 0.31 0.30 0.28 0.28 0.27 0.27
0.57 0.53 0.49 0.49 0.42 0.39 0.41 0.47 0.48 0.49 0.48 0.43 0.41 0.37 0.40 0.47 0.51 0.51 0.51 0.52 0.50 0.50 0.47 0.42 0.39 0.45 0.53 0.57 0.55 0.55 0.55 0.55 0.55 0.55 0.55 0.55 0.55 0.54 0.52 0.52 0.53 0.55 0.58 0.60 0.60 0.59 0.60 0.60 0.58 0.56 0.53 0.50 0.49 0.49 0.49 0.48 0.47 0.46 0.46 0.47 0.48 0.47 0.45 0.44 0.43 0.41 0.40 0.39 0.39 0.38 0.38 0.37 0.36 0.35 0.34 0.33 0.32 0.31 0.31 0.30 0.29 0.28 0.27 0.27 0.26 0.26
0.58 0.54 0.50 0.52 0.41 0.40 0.44 0.47 0.49 0.43 0.31 0.30 0.39 0.47 0.49 0.47 0.49 0.48 0.46 0.47 0.51 0.53 0.48 0.50 0.51 0.54 0.55 0.56 0.54 0.54 0.55 0.55 0.57 0.58 0.58 0.55 0.54 0.54 0.54 0.56 0.60 0.62 0.62 0.62 0.62 0.63 0.60 0.57 0.55 0.53 0.51 0.51 0.51 0.50 0.50 0.49 0.48 0.48 0.48 0.48 0.47 0.45 0.44 0.44 0.42 0.41 0.39 0.39 0.38 0.38 0.37 0.36 0.35 0.34 0.33 0.32 0.31 0.30 0.29 0.28 0.27 0.26 0.26 0.26 0.25 0.25
0.54 0.53 0.50 0.53 0.44 0.41 0.46 0.47 0.39 0.30 0.30 0.39 0.49 0.51 0.53 0.54 0.54 0.52 0.50 0.52 0.53 0.54 0.54 0.52 0.52 0.53 0.54 0.56 0.56 0.57 0.58 0.60 0.61 0.59 0.58 0.59 0.58 0.57 0.59 0.62 0.62 0.63 0.63 0.63 0.61 0.57 0.54 0.52 0.52 0.52 0.53 0.52 0.51 0.51 0.51 0.50 0.50 0.50 0.48 0.47 0.45 0.45 0.44 0.42 0.40 0.40 0.39 0.39 0.38 0.37 0.36 0.34 0.33 0.32 0.31 0.30 0.28 0.27 0.26 0.25 0.25 0.26 0.26 0.25 0.25 0.25
0.53 0.51 0.51 0.49 0.49 0.47 0.42 0.40 0.28 0.27 0.39 0.47 0.49 0.52 0.54 0.56 0.56 0.54 0.50 0.51 0.53 0.54 0.54 0.52 0.53 0.56 0.57 0.58 0.59 0.60 0.59 0.61 0.61 0.61 0.61 0.62 0.64 0.64 0.63 0.63 0.65 0.64 0.60 0.57 0.54 0.53 0.52 0.52 0.53 0.53 0.53 0.53 0.53 0.52 0.52 0.51 0.51 0.49 0.47 0.47 0.45 0.44 0.43 0.42 0.41 0.40 0.39 0.38 0.36 0.34 0.33 0.32 0.30 0.30 0.29 0.27 0.25 0.24 0.24 0.25 0.25 0.26 0.26 0.25 0.24 0.22
0.58 0.55 0.53 0.45 0.51 0.37 0.38 0.38 0.36 0.43 0.43 0.44 0.42 0.44 0.48 0.47 0.49 0.48 0.41 0.44 0.52 0.56 0.55 0.53 0.54 0.56 0.57 0.59 0.59 0.59 0.61 0.61 0.57 0.57 0.62 0.65 0.66 0.68 0.68 0.68 0.66 0.60 0.56 0.55 0.54 0.53 0.54 0.55 0.54 0.53 0.53 0.54 0.54 0.53 0.53 0.53 0.51 0.50 0.48 0.46 0.44 0.44 0.43 0.41 0.39 0.38 0.37 0.35 0.33 0.31 0.30 0.29 0.27 0.26 0.25 0.24 0.23 0.23 0.24 0.25 0.26 0.26 0.25 0.22 0.20 0.19
0.63 0.52 0.53 0.46 0.43 0.47 0.39 0.35 0.36 0.35 0.30 0.31 0.43 0.51 0.56 0.57 0.57 0.56 0.50 0.43 0.51 0.55 0.57 0.55 0.54 0.56 0.57 0.59 0.59 0.60 0.61 0.55 0.50 0.52 0.62 0.66 0.68 0.68 0.67 0.64 0.60 0.57 0.55 0.54 0.54 0.54 0.54 0.54 0.54 0.54 0.54 0.55 0.55 0.55 0.54 0.53 0.51 0.48 0.46 0.44 0.43 0.42 0.40 0.38 0.36 0.35 0.32 0.30 0.28 0.26 0.25 0.25 0.25 0.25 0.25 0.24 0.23 0.23 0.24 0.26 0.26 0.24 0.22 0.19 0.17 0.16
0.62 0.61 0.56 0.49 0.43 0.44 0.40 0.34 0.32 0.30 0.32 0.41 0.45 0.50 0.54 0.57 0.57 0.58 0.49 0.38 0.47 0.54 0.57 0.57 0.55 0.57 0.58 0.57 0.57 0.59 0.55 0.49 0.48 0.54 0.63 0.63 0.62 0.60 0.57 0.55 0.54 0.53 0.53 0.53 0.52 0.52 0.53 0.54 0.55 0.55 0.56 0.56 0.54 0.54 0.52 0.49 0.47 0.45 0.43 0.42 0.40 0.38 0.35 0.32 0.29 0.27 0.25 0.24 0.25 0.26 0.26 0.26 0.26 0.25 0.24 0.23 0.22 0.23 0.24 0.25 0.24 0.22 0.20 0.17 0.16 0.15
0.52 0.52 0.51 0.44 0.41 0.42 0.39 0.35 0.33 0.38 0.37 0.45 0.49 0.51 0.54 0.56 0.58 0.52 0.35 0.33 0.46 0.54 0.58 0.58 0.56 0.57 0.58 0.59 0.59 0.57 0.52 0.46 0.47 0.51 0.55 0.55 0.54 0.54 0.52 0.51 0.51 0.52 0.52 0.53 0.54 0.55 0.55 0.55 0.55 0.55 0.54 0.52 0.49 0.49 0.47 0.46 0.43 0.41 0.38 0.35 0.32 0.29 0.26 0.25 0.25 0.26 0.27 0.26 0.26 0.26 0.26 0.25 0.25 0.24 0.23 0.22 0.22 0.23 0.24 0.24 0.22 0.20 0.18 0.16 0.16 0.15
0.45 0.46 0.47 0.40 0.41 0.41 0.40 0.38 0.40 0.42 0.50 0.52 0.50 0.52 0.54 0.57 0.54 0.38 0.31 0.37 0.48 0.53 0.56 0.56 0.54 0.55 0.55 0.54 0.54 0.49 0.51 0.52 0.50 0.50 0.51 0.51 0.50 0.51 0.52 0.52 0.52 0.52 0.52 0.53 0.53 0.54 0.54 0.53 0.50 0.47 0.45 0.44 0.43 0.42 0.40 0.38 0.35 0.32 0.30 0.29 0.27 0.25 0.25 0.26 0.27 0.27 0.26 0.25 0.25 0.24 0.24 0.24 0.24 0.24 0.23 0.22 0.22 0.23 0.23 0.21 0.20 0.19 0.17 0.16 0.15 0.15
0.43 0.44 0.44 0.45 0.40 0.38 0.39 0.36 0.36 0.41 0.51 0.53 0.54 0.54 0.54 0.49 0.37 0.34 0.43 0.49 0.49 0.48 0.51 0.51 0.50 0.51 0.51 0.50 0.49 0.49 0.49 0.50 0.49 0.48 0.48 0.48 0.48 0.48 0.48 0.48 0.48 0.48 0.49 0.48 0.47 0.45 0.44 0.42 0.40 0.38 0.37 0.37 0.36 0.35 0.33 0.32 0.30 0.28 0.27 0.26 0.25 0.25 0.26 0.27 0.26 0.26 0.25 0.24 0.23 0.23 0.23 0.23 0.23 0.23 0.22 0.21 0.21 0.20 0.20 0.20 0.20 0.19 0.18 0.17 0.16 0.16
0.41 0.39 0.37 0.38 0.41 0.42 0.40 0.36 0.33 0.29 0.43 0.54 0.52 0.51 0.51 0.42 0.43 0.49 0.49 0.50 0.53 0.52 0.50 0.50 0.50 0.49 0.50 0.47 0.48 0.48 0.46 0.46 0.45 0.45 0.45 0.45 0.44 0.43 0.41 0.41 0.40 0.40 0.39 0.38 0.38 0.38 0.36 0.34 0.33 0.31 0.31 0.31 0.31 0.31 0.30 0.28 0.26 0.26 0.26 0.24 0.24 0.26 0.26 0.26 0.25 0.24 0.23 0.23 0.22 0.22 0.22 0.22 0.21 0.21 0.20 0.20 0.20 0.19 0.19 0.19 0.19 0.18 0.18 0.17 0.16 0.16
0.50 0.40 0.39 0.41 0.46 0.36 0.35 0.32 0.33 0.43 0.50 0.55 0.52 0.44 0.48 0.52 0.54 0.54 0.55 0.52 0.51 0.50 0.48 0.46 0.46 0.46 0.46 0.45 0.44 0.43 0.43 0.43 0.42 0.43 0.42 0.41 0.39 0.38 0.37 0.36 0.35 0.34 0.33 0.33 0.32 0.31 0.31 0.30 0.29 0.29 0.28 0.28 0.28 0.28 0.27 0.26 0.25 0.25 0.24 0.23 0.24 0.25 0.24 0.24 0.23 0.23 0.22 0.22 0.21 0.21 0.20 0.20 0.20 0.20 0.20 0.19 0.19 0.19 0.18 0.18 0.18 0.18 0.18 0.18 0.17 0.17
0.49 0.45 0.46 0.40 0.48 0.43 0.38 0.43 0.50 0.53 0.55 0.55 0.54 0.53 0.54 0.56 0.56 0.54 0.51 0.48 0.45 0.45 0.46 0.42 0.40 0.41 0.42 0.42 0.41 0.39 0.38 0.38 0.38 0.37 0.36 0.35 0.34 0.33 0.32 0.31 0.30 0.30 0.29 0.28 0.28 0.28 0.28 0.26 0.25 0.25 0.25 0.25 0.25 0.26 0.26 0.26 0.24 0.23 0.22 0.22 0.23 0.22 0.22 0.22 0.22 0.21 0.20 0.20 0.20 0.19 0.19 0.19 0.19 0.19 0.19 0.19 0.19 0.18 0.18 0.18 0.18 0.17 0.17 0.17 0.17 0.16
0.50 0.54 0.52 0.50 0.46 0.53 0.54 0.54 0.54 0.55 0.55 0.54 0.56 0.56 0.53 0.52 0.51 0.49 0.46 0.44 0.43 0.43 0.43 0.40 0.39 0.39 0.39 0.40 0.38 0.37 0.37 0.36 0.35 0.34 0.33 0.31 0.30 0.29 0.28 0.27 0.26 0.26 0.26 0.25 0.25 0.25 0.25 0.24 0.24 0.23 0.22 0.23 0.24 0.24 0.24 0.24 0.23 0.20 0.19 0.20 0.21 0.21 0.21 0.21 0.20 0.19 0.18 0.18 0.18 0.18 0.18 0.18 0.18 0.18 0.18 0.18 0.19 0.18 0.18 0.18 0.18 0.17 0.17 0.17 0.17 0.17
0.47 0.50 0.48 0.42 0.46 0.43 0.37 0.48 0.50 0.51 0.52 0.52 0.52 0.51 0.50 0.50 0.48 0.46 0.45 0.45 0.43 0.42 0.41 0.40 0.40 0.38 0.38 0.37 0.36 0.34 0.34 0.33 0.32 0.30 0.29 0.27 0.26 0.25 0.24 0.23 0.23 0.22 0.22 0.21 0.22 0.22 0.22 0.22 0.21 0.21 0.21 0.21 0.21 0.21 0.21 0.21 0.21 0.21 0.21 0.21 0.21 0.21 0.21 0.20 0.19 0.17 0.17 0.17 0.17 0.18 0.18 0.17 0.17 0.17 0.17 0.18 0.18 0.19 0.19 0.19 0.18 0.18 0.18 0.17 0.17 0.17
0.39 0.48 0.43 0.42 0.40 0.38 0.37 0.42 0.45 0.47 0.48 0.48 0.49 0.46 0.45 0.46 0.46 0.46 0.45 0.44 0.43 0.42 0.40 0.40 0.39 0.37 0.36 0.33 0.32 0.31 0.30 0.30 0.29 0.27 0.26 0.24 0.23 0.23 0.22 0.21 0.21 0.20 0.20 0.21 0.21 0.22 0.22 0.21 0.20 0.19 0.19 0.19 0.19 0.20 0.20 0.20 0.20 0.21 0.21 0.21 0.21 0.20 0.20 0.18 0.18 0.17 0.17 0.17 0.17 0.18 0.18 0.18 0.18 0.18 0.17 0.18 0.18 0.18 0.18 0.19 0.19 0.18 0.18 0.18 0.18 0.18
0.42 0.43 0.36 0.40 0.38 0.38 0.40 0.41 0.42 0.43 0.44 0.44 0.46 0.46 0.46 0.45 0.44 0.43 0.42 0.41 0.40 0.39 0.38 0.37 0.36 0.34 0.33 0.31 0.30 0.28 0.27 0.26 0.25 0.24 0.23 0.22 0.21 0.21 0.20 0.19 0.19 0.19 0.20 0.20 0.20 0.20 0.20 0.20 0.19 0.19 0.19 0.18 0.19 0.20 0.20 0.20 0.20 0.21 0.21 0.21 0.21 0.20 0.19 0.18 0.17 0.17 0.17 0.17 0.18 0.17 0.18 0.18 0.18 0.18 0.18 0.18 0.19 0.19 0.20 0.19 0.19 0.19 0.19 0.20 0.21 0.20
0.40 0.35 0.38 0.38 0.34 0.33 0.34 0.36 0.39 0.34 0.34 0.39 0.42 0.44 0.44 0.44 0.43 0.41 0.41 0.39 0.38 0.36 0.36 0.34 0.33 0.32 0.30 0.29 0.27 0.26 0.24 0.23 0.23 0.22 0.21 0.20 0.20 0.19 0.19 0.19 0.19 0.19 0.19 0.20 0.20 0.20 0.20 0.20 0.19 0.19 0.19 0.19 0.21 0.21 0.20 0.20 0.20 0.21 0.21 0.21 0.21 0.20 0.19 0.18 0.18 0.17 0.17 0.17 0.17 0.17 0.18 0.18 0.18 0.18 0.18 0.18 0.19 0.19 0.20 0.21 0.21 0.21 0.21 0.21 0.22 0.22
0.36 0.37 0.36 0.33 0.32 0.31 0.37 0.40 0.41 0.41 0.39 0.40 0.42 0.43 0.43 0.42 0.41 0.39 0.38 0.38 0.37 0.36 0.34 0.31 0.29 0.28 0.27 0.26 0.26 0.24 0.23 0.22 0.21 0.21 0.20 0.19 0.19 0.19 0.19 0.19 0.19 0.19 0.19 0.20 0.20 0.20 0.20 0.20 0.20 0.20 0.20 0.20 0.21 0.21 0.21 0.21 0.21 0.22 0.22 0.22 0.21 0.20 0.19 0.18 0.18 0.17 0.17 0.17 0.17 0.18 0.18 0.18 0.18 0.18 0.19 0.19 0.19 0.19 0.19 0.20 0.21 0.22 0.23 0.23 0.22 0.23
Wind_Speed
19 19 20 20 19 19 20 20 21 21 21 20 19 19 20 19 20 19 18 18 18 19 21 21 22 22 22 21 19 20 20 20 21 21 21 19 19 20 20 20 19 19 18 18 18 18 17 17 16 16 15 15 14 13 13 13 12 12 11 11 11 11 11 11 11 11 11 11 11 11 11 11 11 11 11 11 12 12 12 13 13 14 14 15 15 15
20 21 22 21 20 21 21 21 21 21 21 21 20 21 21 21 21 20 19 19 18 19 22 22 23 24 23 22 21 20 21 21 22 22 22 21 21 21 21 21 20 19 19 19 19 18 18 17 17 16 16 15 15 14 15 14 14 13 13 12 12 12 12 12 12 12 12 12 12 12 12 12 12 12 12 13 13 13 13 13 14 14 14 14 14 15
22 23 23 22 22 22 22 21 20 21 21 21 21 21 22 21 22 21 19 19 19 20 22 23 24 25 23 24 23 22 22 23 24 24 24 24 23 22 22 21 21 20 20 20 20 19 18 18 18 17 17 16 16 16 16 16 15 15 14 14 14 14 13 13 13 13 13 13 13 13 13 12 12 12 12 12 12 12 12 13 13 13 13 13 14 14
23 23 23 23 23 22 22 21 21 22 22 22 22 22 22 21 21 21 20 20 20 21 23 24 25 26 25 25 25 26 26 24 24 25 24 24 24 23 22 22 22 22 22 21 21 20 19 19 19 18 18 17 16 16 17 17 16 15 15 15 15 14 14 14 14 14 13 13 13 12 12 12 12 11 11 11 12 12 12 12 13 13 13 14 14 15
25 23 22 23 22 22 21 21 21 22 22 22 22 22 23 22 22 22 21 21 21 22 23 24 26 26 24 25 25 24 23 22 21 21 21 22 21 20 20 21 22 23 23 23 22 21 20 20 20 19 19 18 17 17 17 17 17 16 16 16 15 15 15 14 14 14 14 13 12 12 11 11 11 11 12 12 12 13 13 13 13 14 14 15 16 17
27 25 23 22 22 22 22 23 22 22 22 23 22 23 23 23 23 23 22 21 22 23 22 21 22 23 21 21 21 19 18 20 19 20 21 21 20 19 20 20 21 22 23 23 23 22 21 21 20 20 19 19 18 18 18 18 17 17 17 16 16 16 15 15 14 14 14 14 13 12 12 13 12 12 13 13 13 14 14 14 14 15 16 16 17 18
25 24 23 22 23 22 23 24 23 22 23 23 23 22 22 22 22 22 22 22 22 22 21 19 21 24 24 23 22 20 20 21 21 21 23 22 21 21 21 21 21 21 22 23 23 22 22 22 21 21 20 20 19 19 18 18 18 18 17 17 16 16 16 16 15 15 14 14 13 13 14 14 13 13 14 14 14 14 14 15 15 16 17 18 19 20
24 23 23 23 23 23 24 25 23 22 23 24 24 22 21 21 22 22 22 23 23 23 23 22 22 26 28 25 23 23 22 22 22 22 23 23 23 23 22 22 22 22 21 22 23 23 23 22 22 21 21 20 20 19 19 19 19 18 18 18 17 17 17 16 16 15 15 15 15 15 14 14 14 14 14 14 15 15 15 16 17 18 19 20 21 21
24 24 24 23 24 24 24 24 23 23 23 24 23 21 20 20 21 21 22 23 23 24 24 22 20 23 27 25 22 22 22 22 22 22 22 22 23 23 23 22 22 22 21 22 22 22 23 23 22 22 21 20 20 19 19 20 20 19 19 19 18 18 17 17 16 16 16 16 16 15 15 14 15 15 15 15 16 16 17 18 19 20 21 21 22 23
25 25 24 23 24 25 23 22 23 23 23 23 22 20 20 20 21 21 22 23 23 24 25 22 20 21 26 26 22 21 21 20 21 20 20 21 21 22 22 22 22 22 21 21 21 22 22 22 22 22 21 20 20 20 20 20 20 20 20 19 19 18 18 17 17 17 17 17 16 16 15 15 15 15 16 16 17 18 19 20 21 22 22 23 23 24
25 25 24 24 24 23 22 21 22 21 21 22 21 20 20 21 21 21 23 22 22 25 25 23 22 21 24 23 19 20 20 18 18 18 18 18 19 21 21 22 22 21 21 21 21 21 21 21 21 21 21 20 20 20 20 20 20 20 20 20 19 19 18 18 17 17 17 17 17 16 16 16 16 17 17 17 18 19 20 21 22 23 23 24 24 25
26 25 25 25 24 22 21 21 22 22 21 21 21 21 20 20 20 21 21 20 21 24 23 22 23 23 25 23 19 18 18 17 18 17 17 17 18 19 20 21 21 21 21 21 21 21 20 21 21 21 21 20 20 20 20 20 20 20 20 20 19 18 18 18 18 17 17 17 17 17 17 17 17 18 18 19 19 20 21 22 23 23 24 25 26 27
27 28 26 25 25 24 22 22 22 23 22 22 21 20 19 19 20 20 20 20 22 24 23 21 21 24 28 27 24 23 21 20 20 19 17 17 18 19 19 20 20 20 21 21 21 21 21 22 22 21 21 20 20 20 20 20 20 20 20 20 19 18 18 18 17 17 17 17 17 18 18 18 18 19 19 20 21 22 23 23 24 24 25 26 27 28
26 26 26 25 26 25 25 24 24 23 23 23 22 21 19 19 19 21 20 20 22 23 23 22 21 24 26 26 26 26 22 19 19 19 19 18 18 18 19 19 20 20 21 21 21 22 22 22 21 21 20 20 20 20 20 20 20 20 20 19 19 18 18 18 17 17 17 18 18 19 19 19 20 20 20 21 22 23 24 24 25 26 27 28 29 30
24 24 24 24 23 23 25 25 24 23 23 24 23 22 22 20 20 20 19 20 21 21 22 21 21 22 22 22 22 21 18 16 18 18 18 18 18 18 18 19 20 21 21 21 21 21 21 21 21 21 20 20 20 20 20 20 20 20 20 19 19 18 18 18 18 18 18 18 19 20 20 21 21 21 22 23 24 25 25 26 26 27 28 29 30 31
25 25 23 22 21 21 22 23 22 21 22 23 22 23 25 23 22 21 20 20 20 21 22 22 23 24 23 23 21 18 18 17 18 19 18 17 17 17 17 18 19 20 21 21 21 21 21 21 21 21 21 20 20 20 20 20 20 20 20 20 19 19 19 19 19 19 19 20 20 21 21 22 22 23 24 25 25 26 27 27 28 29 30 30 31 32
24 24 23 22 22 22 22 22 22 22 22 21 21 23 23 22 22 22 22 21 20 23 24 23 25 26 25 26 23 20 21 20 20 21 20 18 18 18 18 19 19 20 20 20 20 20 20 21 21 21 21 21 21 21 21 21 21 21 21 20 20 20 20 20 20 20 20 21 21 22 22 23 24 24 25 26 27 27 28 29 29 30 31 32 32 33
23 23 24 23 22 23 23 22 22 22 21 20 22 23 21 20 21 21 21 21 21 24 25 24 27 27 24 25 23 20 21 21 21 21 20 18 18 19 19 19 19 20 20 20 20 20 21 21 21 21 21 21 21 21 21 21 21 21 21 22 21 21 21 21 21 21 22 22 22 23 24 24 25 26 27 27 28 28 29 30 31 31 32 33 33 34
25 24 25 24 23 23 23 22 22 22 22 22 23 23 20 20 21 21 21 21 22 24 25 24 27 27 26 26 24 22 23 22 20 19 19 19 18 19 19 20 20 20 20 20 21 21 21 21 21 21 21 22 22 22 22 22 22 22 22 22 22 23 23 22 22 22 23 23 24 25 25 26 27 27 28 28 29 29 30 31 32 32 33 34 34 35
26 26 25 25 25 23 23 24 24 24 23 22 24 24 22 21 22 22 22 22 21 23 25 25 25 26 26 26 24 24 24 21 18 18 18 19 19 19 20 20 21 21 21 21 22 22 22 22 22 22 22 23 23 23 23 22 22 22 23 23 23 23 24 23 24 24 24 25 25 26 27 28 28 28 29 30 30 31 31 32 33 34 34 35 36 37
26 27 26 26 25 24 25 26 26 26 25 25 25 25 24 23 22 23 24 24 23 23 24 25 26 25 24 24 23 23 22 19 17 18 18 18 19 20 20 21 22 22 22 22 22 23 23 23 23 23 23 23 23 23 23 23 23 23 24 24 24 24 25 25 25 25 26 26 27 27 28 29 29 30 30 31 31 32 33 33 34 35 35 36 37 38
27 28 27 26 27 27 28 27 27 27 27 27 28 28 27 26 23 23 25 25 25 25 24 24 28 28 25 23 22 21 21 20 18 18 18 18 19 19 20 22 23 23 23 23 23 24 23 24 24 24 24 24 24 24 24 24 24 24 25 25 25 26 26 26 26 26 27 28 28 29 29 30 31 31 32 32 33 34 34 35 35 36 37 37 38 39
26 27 28 28 29 28 28 27 26 26 27 27 29 29 28 28 28 26 26 25 25 28 28 25 29 31 26 23 22 21 21 21 19 19 18 18 19 19 20 22 23 23 24 24 24 24 24 25 25 25 25 26 26 26 26 25 26 26 26 26 26 27 27 27 27 28 28 29 30 30 31 31 32 32 33 34 34 35 36 36 37 37 38 39 39 40
26 27 29 28 28 27 27 28 27 27 27 28 30 30 29 31 31 30 29 26 26 29 27 25 29 30 26 24 24 22 22 22 21 20 18 18 19 20 21 22 23 24 24 24 25 25 25 25 26 26 27 27 27 27 27 27 27 27 27 27 28 28 28 28 29 29 30 30 31 31 32 33 33 34 35 35 36 36 37 38 38 38 39 40 40 41
28 28 27 25 26 26 27 27 28 28 28 30 31 31 32 32 31 31 30 27 29 32 27 26 31 30 26 25 24 23 22 22 21 20 19 19 20 20 21 22 23 24 24 25 25 26 26 27 27 28 28 28 29 29 29 29 29 29 29 29 29 29 30 30 31 31 32 32 32 33 33 34 35 36 36 37 37 38 38 39 39 40 40 41 41 42
30 30 29 27 28 29 29 28 28 28 28 30 32 32 33 33 31 31 29 29 33 32 28 31 34 30 26 26 24 23 22 21 21 22 21 20 20 20 21 22 24 24 25 26 27 27 28 28 28 29 29 30 30 30 30 30 30 31 30 30 31 31 31 32 32 33 33 33 34 34 35 36 36 37 38 38 39 39 40 40 41 41 41 42 42 42
31 32 33 34 34 35 35 33 29 27 28 31 33 33 34 34 33 31 30 33 33 28 29 35 35 32 30 28 26 26 24 23 23 23 22 21 21 21 22 23 24 25 26 27 27 28 29 29 30 30 31 31 31 32 32 32 32 32 32 32 32 33 33 33 34 34 34 35 35 36 37 37 38 39 39 40 40 41 41 42 42 42 42 42 43 43
31 33 35 37 39 40 40 37 33 30 32 33 33 34 34 34 34 34 36 37 32 28 34 35 31 33 35 30 28 29 26 25 25 24 24 23 22 23 23 24 25 26 27 28 29 30 30 30 31 31 32 33 33 33 33 33 34 33 34 34 34 34 35 35 35 35 35 36 37 37 38 39 39 40 41 41 41 42 42 43 43 43 43 43 43 44
33 35 37 38 40 41 41 40 36 34 34 34 34 35 34 34 36 39 41 40 34 33 39 35 29 35 36 31 31 31 29 28 28 26 26 25 24 25 25 26 27 28 29 30 30 31 32 32 32 33 34 34 34 34 34 35 35 35 35 35 36 36 36 36 36 36 37 37 38 39 39 40 41 42 42 42 43 43 43 43 43 43 43 44 44 44
34 37 37 37 38 41 42 41 39 37 37 36 35 36 35 36 38 40 41 40 37 39 42 38 35 38 36 31 32 31 29 29 28 26 26 26 27 27 27 28 29 29 30 31 32 32 33 34 34 34 35 35 36 36 35 36 36 36 37 37 37 37 37 37 38 38 38 39 39 40 41 41 42 43 43 43 44 44 44 44 44 44 44 44 44 45
35 36 36 34 36 41 43 41 40 40 40 40 39 39 39 39 40 40 39 38 38 41 42 39 39 40 35 31 31 30 28 28 27 27 27 27 28 28 29 30 30 31 32 32 33 33 34 35 35 35 36 36 37 37 36 37 37 37 38 38 38 38 38 39 39 39 40 40 41 41 42 43 43 43 44 44 44 44 44 44 44 44 45 45 45 45
35 35 34 33 35 41 43 41 40 41 40 42 44 45 45 43 39 38 39 38 37 40 40 38 40 40 34 30 30 30 29 29 28 28 27 28 29 30 31 31 31 32 32 32 33 34 35 36 36 37 38 38 38 37 38 38 38 38 39 39 39 39 39 40 40 41 41 42 42 43 43 44 44 44 44 44 45 45 45 45 45 45 45 45 45 45
35 35 35 34 35 40 42 38 38 38 37 40 46 48 47 44 40 39 40 40 39 39 38 38 40 38 33 31 32 32 32 31 31 30 29 29 30 31 31 31 32 33 33 34 35 35 36 37 38 38 39 38 38 39 39 39 39 39 39 39 40 40 40 41 42 42 42 43 43 44 44 45 45 45 45 45 45 45 45 45 46 46 46 46 46 46
36 37 38 36 35 38 38 33 32 34 36 39 41 41 41 42 42 42 43 42 41 39 39 39 38 35 33 33 34 34 33 33 33 33 31 30 31 32 32 33 34 35 35 36 36 37 37 38 38 39 39 38 38 39 39 39 39 39 39 40 40 41 41 42 43 43 44 44 45 45 45 46 45 45 46 46 46 46 46 46 46 46 46 46 46 46
39 39 39 37 35 35 33 30 31 34 37 39 37 35 37 39 40 41 43 42 41 40 41 41 38 35 34 35 34 34 34 33 33 33 32 32 33 33 34 35 36 36 36 36 36 37 38 38 38 38 37 37 38 38 38 39 39 39 40 41 41 42 43 44 44 45 45 45 46 46 46 46 46 46 46 46 46 46 46 47 47 46 46 46 46 46
39 39 38 36 35 33 31 32 34 34 35 35 34 34 35 35 35 37 39 41 40 39 40 41 40 37 36 35 34 34 34 33 33 34 34 34 34 34 35 37 36 36 36 36 37 37 38 38 37 36 36 36 37 37 38 39 40 40 41 42 43 43 44 45 45 45 45 46 46 47 46 46 46 46 46 46 46 47 47 47 47 47 46 46 46 46
38 38 37 37 36 35 34 35 36 36 36 37 35 34 34 34 33 34 36 39 39 37 38 39 38 36 35 35 34 33 33 33 34 36 36 36 36 36 36 36 36 36 36 36 36 37 37 36 35 34 34 35 36 37 38 39 39 40 41 42 43 44 44 45 45 46 46 46 47 47 47 47 47 46 47 46 46 47 47 47 47 46 46 46 46 46
38 38 38 37 36 36 36 34 33 33 36 37 36 35 34 34 33 32 34 36 36 34 35 36 35 33 33 32 32 32 32 34 36 37 37 36 35 34 34 34 34 35 35 35 35 35 34 34 33 33 34 34 35 36 37 37 38 39 41 42 42 43 44 44 45 45 46 47 47 47 47 47 47 47 47 47 47 47 46 46 46 46 46 46 47 46
36 36 37 37 35 34 34 33 31 32 34 34 33 33 33 33 31 29 32 36 35 33 33 33 32 31 31 31 31 31 32 34 36 35 34 34 33 33 33 33 33 33 33 33 33 32 32 32 32 33 34 35 36 36 37 37 38 39 40 41 42 42 43 44 44 45 45 46 46 46 47 47 47 47 47 47 47 46 46 46 46 46 46 46 46 46
34 34 35 36 35 34 34 34 33 34 34 33 33 32 31 30 28 27 30 33 33 31 30 30 29 29 29 29 29 29 31 33 33 32 31 31 31 31 32 32 32 32 32 32 32 31 31 32 32 34 35 36 36 37 37 38 39 40 40 41 41 42 42 42 43 44 44 45 45 46 46 46 47 47 47 46 46 46 46 46 46 46 46 45 45 44
34 34 35 37 37 36 37 36 35 35 35 35 35 34 31 29 28 28 30 31 29 27 27 27 26 26 27 27 28 29 30 30 30 29 29 29 29 30 31 31 31 31 31 31 32 32 32 33 34 34 35 36 37 37 38 38 39 39 40 40 40 41 41 41 42 43 43 44 45 45 46 46 46 46 46 45 45 45 45 45 45 45 45 44 44 43
33 33 34 37 37 36 37 36 34 34 35 33 33 32 30 28 29 30 30 29 27 26 26 26 26 27 28 28 29 29 28 28 28 28 28 28 29 30 30 31 31 31 31 31 32 32 33 33 34 35 36 37 37 38 38 38 38 38 39 39 39 40 41 41 42 43 43 43 44 44 44 45 45 45 44 44 44 44 44 44 44 44 44 44 43 43
33 32 33 35 35 33 33 33 32 32 33 31 29 29 30 29 29 28 27 27 28 28 27 28 28 28 28 29 28 28 28 28 28 28 28 29 30 30 31 31 31 31 31 31 32 33 33 34 34 35 36 37 37 37 38 38 38 38 38 39 40 40 41 42 42 43 43 43 43 43 43 43 43 43 44 44 44 44 44 44 44 44 43 43 43 42
32 31 32 33 32 31 31 31 31 30 30 29 28 28 29 28 28 28 28 28 28 28 28 28 28 28 28 28 27 27 27 28 28 29 29 29 30 30 30 30 30 30 31 32 32 33 33 34 35 35 36 37 37 38 38 38 38 38 39 40 40 41 41 42 42 42 42 42 42 42 42 43 43 43 43 43 44 44 44 44 44 43 43 43 42 42
29 30 30 31 30 30 30 30 30 29 27 26 26 26 26 26 27 28 28 27 27 28 28 27 27 28 27 27 27 28 28 28 29 29 29 29 29 29 29 30 30 30 31 31 32 33 34 34 35 36 36 37 37 38 38 38 39 39 40 40 41 41 41 42 41 41 41 42 42 42 42 42 43 43 43 43 44 44 44 44 43 43 43 42 42 42
27 27 28 28 28 28 28 28 28 28 27 26 26 26 26 26 26 26 26 25 26 27 27 27 27 28 28 28 28 29 29 29 29 29 29 29 29 29 29 30 30 30 31 32 33 34 35 35 36 36 36 37 38 38 39 39 40 40 40 41 41 41 41 41 41 41 41 42 42 42 42 42 42 43 43 43 44 44 44 44 43 43 42 42 42 43
28 27 26 26 27 27 27 27 27 27 27 27 27 27 26 26 26 26 26 26 26 27 27 27 28 28 29 29 29 30 30 30 30 30 30 30 30 30 30 30 31 32 33 34 34 35 35 35 36 36 37 38 38 39 39 40 41 41 41 41 41 41 41 41 42 42 42 42 42 42 42 42 42 43 43 44 44 44 44 43 43 43 43 43 43 43
28 27 28 28 28 27 27 27 27 26 27 27 27 27 27 27 27 27 27 27 27 28 28 28 29 29 29 30 30 30 30 30 30 30 30 30 30 31 31 32 33 33 34 34 34 35 35 36 36 37 38 39 39 39 40 40 41 41 41 41 41 41 42 42 42 43 43 43 42 42 42 43 43 43 43 43 44 44 44 44 44 44 44 45 45 45
27 28 29 28 28 28 29 29 28 27 27 29 30 30 30 30 29 29 29 29 29 29 29 29 30 30 30 30 30 29 30 30 30 30 30 31 31 32 32 33 33 33 34 34 35 35 36 37 38 38 39 40 40 40 40 41 41 42 42 42 42 42 42 43 43 43 43 43 43 43 43 44 44 44 44 44 44 44 44 44 45 45 46 46 46 46
28 30 30 28 29 29 29 30 29 28 29 31 33 32 32 31 30 30 30 30 30 30 30 30 30 30 30 30 30 29 30 30 30 30 31 32 33 33 33 33 33 34 34 35 36 37 37 38 39 40 40 40 40 40 41 41 41 42 42 42 42 43 43 43 43 44 44 44 44 45 45 45 45 45 44 44 44 45 45 45 46 46 47 47 47 48
30 30 30 29 29 30 30 30 30 29 30 32 33 33 33 32 31 31 31 31 32 32 31 31 31 30 30 30 30 30 30 31 32 32 32 33 34 34 34 34 35 35 36 36 37 38 38 39 40 40 40 40 40 40 41 41 41 41 42 42 43 43 43 44 44 44 45 45 45 45 45 45 45 45 45 45 45 46 46 46 47 48 48 48 49 49
Wind_Direction
259 260 260 261 262 262 262 262 265 269 271 273 275 274 275 276 276 277 275 270 271 273 271 271 273 273 274 273 266 259 258 261 261 261 261 259 258 257 257 257 257 257 258 258 258 259 259 258 258 256 252 248 245 242 239 240 241 243 243 241 240 242 245 246 247 250 251 253 254 256 260 264 268 270 272 276 280 283 286 289 291 293 295 295 297 298
261 260 261 260 260 262 264 263 263 265 268 270 272 273 274 274 275 276 273 270 272 273 272 274 274 273 273 274 270 261 259 263 261 261 262 260 259 258 257 256 256 258 258 256 256 256 256 255 254 253 249 246 243 239 238 239 240 243 245 245 244 245 248 250 250 252 254 256 258 259 262 264 266 269 272 276 279 282 285 288 291 293 294 296 298 299
262 262 262 261 262 263 265 266 265 264 266 268 270 273 273 274 276 276 273 272 273 272 274 275 275 274 274 274 273 267 263 263 260 259 260 259 258 258 257 255 256 256 256 255 254 253 253 252 251 250 247 244 241 238 238 241 242 244 247 247 246 247 248 250 251 252 254 257 259 261 263 264 267 271 274 277 280 283 285 289 292 294 296 298 300 301
261 263 262 258 260 263 263 265 266 267 267 267 269 271 272 273 274 275 273 272 272 272 274 277 276 275 274 274 273 269 266 265 264 263 264 264 260 258 257 255 254 253 253 253 252 251 250 249 249 247 244 242 240 238 239 242 244 245 246 247 246 248 249 250 252 254 255 257 259 262 263 265 267 271 275 278 282 284 287 290 294 296 298 300 301 303
261 265 264 258 258 261 262 263 263 265 267 267 266 268 270 272 271 271 272 272 271 272 274 278 279 275 273 272 272 271 268 266 266 266 267 269 264 259 258 256 255 254 253 251 250 250 248 246 246 244 241 240 239 238 240 241 244 245 245 246 246 248 250 251 253 254 257 258 260 261 262 265 268 272 276 279 283 286 287 290 294 297 300 301 302 304
262 262 263 260 260 260 261 263 261 262 267 269 267 266 267 270 271 272 274 275 276 276 274 276 278 275 273 271 273 276 273 268 268 266 265 267 264 259 257 257 257 256 254 251 249 248 246 244 243 242 239 238 237 237 239 242 244 244 245 246 246 247 249 251 252 254 258 259 258 260 262 265 268 273 279 281 284 286 288 291 294 297 300 301 303 304
263 261 262 260 259 259 260 263 261 261 266 268 269 270 267 268 271 273 275 274 273 274 273 271 274 277 277 274 275 276 271 269 270 269 267 265 262 259 258 257 257 257 254 251 248 247 245 244 242 240 238 237 237 236 238 241 243 243 244 245 246 247 248 250 252 254 257 259 260 263 265 267 270 274 279 282 284 286 288 291 293 297 300 302 303 304
261 260 262 261 259 259 259 262 262 260 264 266 270 273 271 269 271 271 273 271 270 274 272 268 271 277 278 276 274 272 270 270 270 270 269 265 261 260 259 258 256 256 254 249 246 245 244 243 241 238 237 237 236 235 237 240 242 242 243 245 246 247 249 251 252 254 257 260 262 265 267 270 273 275 278 281 284 286 288 291 294 297 300 302 303 304
262 258 258 258 258 260 261 263 262 259 263 266 269 271 270 270 272 272 272 270 273 276 271 267 270 275 276 277 276 271 270 272 271 270 269 264 261 258 257 257 255 255 254 248 245 244 242 241 239 236 237 237 236 235 238 240 241 242 243 245 247 248 250 251 252 255 258 261 264 265 267 270 273 275 278 280 284 287 289 292 295 297 299 301 302 303
263 260 260 258 258 261 262 268 267 261 261 263 266 269 270 270 271 272 271 271 273 271 266 266 268 272 278 279 275 272 271 273 274 274 270 264 259 257 255 254 253 252 252 248 244 242 241 239 236 235 236 237 236 237 239 240 241 242 243 245 247 248 250 251 253 256 259 262 264 265 267 269 272 275 278 281 284 288 290 293 295 296 298 299 300 302
259 261 263 261 261 261 261 266 269 265 261 261 264 267 269 270 270 271 270 270 271 269 266 265 262 266 276 279 276 274 275 275 276 278 276 267 260 257 254 251 250 250 248 245 242 240 238 237 235 235 236 236 236 238 239 239 240 241 243 245 246 248 250 252 256 258 260 262 263 265 267 270 272 275 278 281 285 288 291 293 295 296 297 298 299 301
256 258 260 260 260 259 260 264 268 267 263 261 263 265 267 270 272 272 269 266 267 270 270 266 261 258 265 274 281 283 283 282 280 278 274 268 261 256 253 249 247 246 244 241 240 238 236 235 235 234 235 235 236 237 237 238 239 241 243 244 245 247 250 253 256 258 259 261 263 266 270 272 274 276 279 283 286 288 290 292 294 295 296 297 298 299
257 255 256 259 259 256 257 261 264 266 264 260 259 259 263 268 270 269 266 264 266 270 274 271 264 260 262 269 276 279 281 282 284 280 270 264 260 256 251 247 244 243 242 239 238 237 236 236 236 235 234 234 234 235 236 237 239 241 242 242 244 246 249 252 254 257 259 262 265 268 271 273 276 278 281 284 287 289 291 292 293 294 295 296 297 298
257 258 253 256 260 255 252 254 257 260 258 254 254 254 255 261 266 267 266 268 269 270 274 273 268 268 271 273 273 276 279 280 285 284 272 261 257 255 250 245 242 241 241 240 238 238 238 237 236 234 232 231 233 234 236 238 239 240 241 242 244 246 249 252 255 258 261 263 266 269 272 274 277 280 283 286 288 290 291 292 292 293 294 295 295 296
253 259 253 252 258 252 249 253 254 255 254 254 255 255 253 254 260 266 267 269 273 275 275 271 268 269 274 278 277 279 281 281 286 287 278 266 258 255 251 246 242 240 240 240 239 238 238 236 233 232 230 231 233 235 237 238 239 240 241 243 245 247 250 252 256 259 262 265 267 270 273 275 278 281 284 287 289 290 291 291 292 292 293 294 295 297
251 259 255 253 256 248 248 254 252 251 255 257 255 253 254 255 258 265 269 269 274 279 274 267 267 270 274 277 277 278 281 281 283 282 276 268 259 252 250 246 242 240 239 239 238 238 236 234 231 231 231 232 234 235 237 238 239 241 242 244 246 248 251 254 257 261 263 266 268 271 274 276 279 283 286 288 289 290 290 291 292 293 294 295 296 297
251 258 258 257 257 252 253 255 250 250 255 256 252 250 255 259 258 262 270 274 274 275 272 266 269 274 277 277 273 272 277 280 280 277 271 264 257 249 247 245 241 239 238 237 238 237 235 232 231 232 232 234 235 236 238 240 242 243 244 246 248 250 252 256 259 262 264 267 270 273 275 278 281 284 286 288 289 290 290 291 292 293 294 296 297 298
250 256 259 257 257 258 260 258 252 252 252 251 252 254 257 262 261 260 269 275 270 271 273 267 268 273 274 276 276 273 275 278 277 274 269 262 255 249 245 242 240 238 237 238 237 237 234 232 232 233 234 236 237 238 240 242 244 246 247 248 249 250 253 257 260 263 266 269 272 274 277 279 282 285 286 288 289 289 290 291 292 294 295 296 297 298
250 253 258 258 257 259 259 255 252 253 253 253 256 257 256 259 260 258 264 270 268 271 276 271 269 270 268 270 275 272 271 274 273 271 268 261 252 248 245 241 240 238 237 238 237 237 235 234 234 235 236 239 240 240 242 244 246 248 249 251 251 253 256 259 262 264 267 270 273 276 278 280 282 285 287 288 289 289 290 291 293 294 295 296 297 297
249 250 255 258 257 255 254 251 248 249 252 255 258 258 256 258 259 257 260 266 267 270 276 276 273 273 271 270 269 267 268 269 268 267 266 260 251 247 245 241 239 238 237 238 237 236 236 235 236 237 239 241 241 243 244 247 249 250 251 253 254 256 259 261 264 266 269 272 274 276 279 281 283 285 287 288 289 289 290 291 293 294 295 296 297 297
247 248 252 256 255 250 250 251 249 248 249 250 252 253 254 257 261 263 263 262 264 269 274 277 276 275 276 275 268 264 268 268 266 266 265 259 252 247 243 241 239 238 238 239 237 237 237 237 239 240 242 243 244 245 248 249 251 252 253 255 256 258 261 263 266 268 270 273 275 277 279 281 283 285 287 288 288 289 290 292 293 294 295 296 297 297
246 247 248 250 251 250 253 255 253 253 251 251 252 253 253 254 257 264 267 262 261 265 269 273 276 274 275 278 273 270 272 270 265 265 265 257 250 247 244 242 241 240 240 240 239 239 239 240 240 241 243 245 246 248 250 251 253 254 255 257 258 260 263 265 267 269 272 274 276 278 280 282 284 285 286 287 288 289 291 292 293 294 295 296 297 297
247 247 246 248 251 253 257 257 255 256 256 255 256 255 255 256 255 257 264 264 261 262 265 270 274 274 274 276 276 276 278 276 268 263 263 257 250 249 246 244 243 243 242 242 241 241 242 242 242 242 244 246 248 250 252 254 256 256 257 259 261 263 265 267 269 271 273 275 277 278 280 282 284 285 286 287 288 289 291 292 293 293 295 296 296 297
246 246 246 249 253 255 257 258 258 258 257 256 256 256 256 258 257 257 260 264 264 262 262 266 269 271 275 277 277 277 278 279 275 266 260 256 253 251 247 244 243 244 243 243 242 243 244 244 244 244 246 248 250 252 253 256 258 258 259 261 262 264 266 268 270 272 274 275 277 279 280 282 283 284 285 286 287 289 290 291 292 293 294 295 296 297
245 245 245 248 252 253 255 257 258 257 256 257 259 259 258 258 256 256 259 261 264 261 257 260 266 268 273 276 277 279 279 278 279 272 262 256 255 252 248 245 244 244 244 244 244 246 247 247 247 248 249 251 252 254 256 258 259 259 260 262 264 266 268 270 272 273 274 275 277 278 280 281 283 283 284 285 287 288 290 291 292 292 293 294 295 296
245 245 242 243 246 248 250 254 256 257 258 259 258 257 257 256 252 253 256 255 259 261 254 256 264 268 271 272 272 274 274 273 275 274 267 260 257 254 250 247 246 246 245 246 246 248 249 251 250 250 252 253 254 256 257 259 260 260 261 263 265 267 269 270 272 272 274 275 277 278 280 281 282 282 283 285 286 288 289 290 291 292 292 293 294 296
249 247 242 242 245 249 253 257 259 259 258 258 256 255 255 254 251 251 253 253 256 261 259 257 261 267 268 267 268 269 268 269 271 271 267 263 260 256 252 250 249 249 249 249 249 251 252 253 252 252 253 255 256 258 259 259 260 260 262 264 266 268 269 270 271 272 273 275 277 278 279 280 281 282 283 284 286 287 288 289 290 291 292 293 294 295
249 247 244 245 248 252 256 259 259 257 257 257 256 255 254 254 251 248 250 253 254 258 261 260 260 263 264 263 264 266 266 268 268 266 264 263 260 257 255 252 251 252 252 252 252 254 255 255 255 255 256 257 257 259 260 260 260 261 263 265 267 268 269 270 271 272 273 275 277 278 279 279 280 282 283 284 285 286 287 288 289 290 291 292 294 295
249 248 248 249 251 254 257 258 257 256 258 259 257 255 254 252 250 247 249 253 251 252 260 262 259 260 264 263 262 264 264 265 266 264 262 261 259 257 255 252 252 253 253 253 255 257 257 257 258 259 258 258 258 259 260 261 261 262 264 265 267 268 268 269 270 272 274 275 276 277 278 279 281 282 283 284 284 285 286 287 288 290 291 292 293 294
250 251 252 252 254 256 256 257 257 256 258 260 258 257 255 252 251 250 251 253 251 253 259 262 261 262 265 263 262 263 262 263 265 263 260 259 258 256 254 253 253 254 254 256 258 260 260 261 261 261 260 260 260 260 261 261 262 263 264 266 267 267 268 269 271 272 273 275 276 277 278 280 281 282 283 283 283 284 285 287 288 289 290 291 293 293
251 251 254 253 254 256 256 256 257 256 258 259 259 258 256 254 253 251 252 253 253 254 259 261 262 264 264 263 263 264 262 262 263 261 259 257 256 256 255 255 254 255 257 260 263 264 263 263 263 262 262 262 262 262 262 262 263 264 265 266 266 267 268 269 271 272 273 274 276 277 278 280 281 282 282 282 282 283 284 286 287 288 289 290 291 292
249 250 253 252 252 256 257 257 257 257 259 259 258 256 254 254 254 253 253 253 252 254 258 258 259 263 264 264 265 264 261 260 261 260 259 257 255 255 256 255 256 258 261 264 266 266 264 263 263 264 264 264 264 263 262 263 264 264 264 265 265 267 268 269 270 271 272 274 276 277 279 280 281 281 281 281 281 282 284 285 286 287 288 289 290 291
246 248 251 250 252 257 259 257 257 258 258 257 256 256 254 253 254 254 254 253 252 253 256 256 259 264 266 263 263 263 261 261 261 259 258 256 254 255 256 257 259 263 266 268 268 267 266 266 266 266 266 265 264 263 262 263 264 264 264 265 266 267 268 269 270 271 273 275 276 277 278 279 279 280 280 280 281 282 283 284 285 286 287 288 289 290
247 247 250 251 254 258 259 258 258 255 254 256 258 259 256 252 251 251 253 254 253 254 256 259 263 265 263 260 260 260 260 260 260 258 257 256 254 256 259 262 264 267 269 270 270 269 269 268 268 267 267 266 265 264 264 264 264 265 265 266 267 267 267 268 270 271 273 275 276 277 278 278 278 278 279 280 280 281 282 283 284 285 286 287 288 289
247 248 251 252 254 258 257 257 256 253 254 259 263 261 257 254 251 252 254 255 254 255 257 261 263 263 261 261 261 259 258 258 259 258 259 259 258 260 263 266 267 269 270 271 271 271 270 269 269 268 267 266 265 265 265 265 265 266 266 266 267 267 268 269 270 272 274 275 276 277 277 277 278 278 279 279 280 281 281 282 283 284 285 286 287 288
246 248 250 250 251 255 255 251 253 258 260 262 262 260 257 256 254 254 256 257 256 256 258 259 261 262 261 261 262 261 260 260 261 261 261 261 261 263 265 267 268 270 270 271 271 270 270 269 269 268 267 266 265 265 265 266 266 266 266 266 267 268 269 271 272 273 274 275 276 276 276 277 277 277 278 279 279 280 281 281 282 283 284 285 286 288
246 247 249 250 249 251 253 253 256 263 265 261 259 257 256 256 255 255 259 261 260 258 258 259 261 260 259 259 260 262 263 263 265 265 263 263 264 266 267 268 268 269 270 270 270 270 270 269 269 268 267 266 266 266 266 266 266 267 267 268 269 270 271 272 273 274 274 275 275 275 276 276 276 277 277 278 279 279 280 281 281 282 283 284 285 286
248 247 247 249 250 250 252 254 258 261 261 259 258 257 257 259 259 258 261 264 264 260 256 257 259 258 258 259 260 261 263 264 265 266 265 264 265 266 268 268 268 268 268 269 270 270 270 270 269 268 267 267 267 267 267 267 267 268 269 270 271 272 273 273 274 275 275 275 275 275 276 276 276 277 277 278 278 279 279 280 281 281 282 283 284 285
249 249 247 248 249 248 248 251 254 255 258 260 260 260 262 263 262 260 262 264 264 262 257 255 257 257 256 257 258 259 261 263 264 266 265 264 264 265 266 267 268 268 268 269 270 270 270 270 269 268 267 268 268 268 268 269 269 270 271 273 273 274 274 275 275 275 275 275 275 275 276 276 276 277 278 278 278 278 279 280 280 281 282 283 284 285
245 246 245 245 246 246 247 251 254 256 258 259 259 262 265 264 259 257 261 264 266 265 261 258 258 257 254 253 255 258 260 262 265 266 265 264 265 265 265 266 267 268 269 270 271 270 270 269 268 268 268 268 269 270 270 271 271 272 274 275 275 275 275 275 275 275 275 276 276 276 276 276 277 277 277 277 278 278 279 279 280 281 281 282 283 284
243 244 244 243 245 246 247 251 256 257 258 258 258 260 262 260 257 254 258 265 267 266 263 260 257 256 254 252 255 259 261 263 265 266 265 265 265 266 266 267 268 270 271 271 271 270 270 269 269 269 269 270 271 271 272 273 274 275 275 276 276 276 276 276 276 276 277 277 277 277 277 277 277 277 277 277 278 279 279 279 280 280 281 281 282 283
243 244 245 245 246 248 249 252 257 259 258 257 258 259 257 256 256 255 258 262 263 260 261 260 257 257 256 255 257 260 262 263 264 265 266 266 266 267 269 269 270 271 272 271 270 269 269 269 270 270 271 271 272 273 274 275 275 276 277 276 276 276 277 277 277 278 278 278 278 278 277 277 277 277 277 278 278 279 279 279 280 280 280 281 282 282
244 244 246 245 246 249 250 251 254 258 256 253 254 257 256 254 254 254 256 260 261 260 261 262 261 260 260 259 259 261 262 263 265 266 268 268 268 269 270 270 270 270 269 269 269 268 269 270 270 271 272 272 273 274 275 275 276 276 277 276 276 278 278 278 278 278 278 278 278 278 278 278 277 277 278 278 278 279 279 279 279 280 280 281 281 281
247 246 247 247 246 248 249 249 254 257 256 254 254 255 253 252 253 253 255 259 261 261 262 264 264 264 263 262 261 262 263 264 265 266 268 269 269 269 269 269 269 268 268 269 269 269 270 271 271 272 273 274 275 276 276 276 276 277 277 277 278 278 278 279 279 279 279 278 278 278 278 278 278 278 278 278 278 278 279 279 279 279 280 280 280 280
249 248 249 250 249 249 250 250 253 255 254 254 255 254 251 252 255 256 256 258 260 260 261 263 264 265 265 264 263 263 263 264 264 266 267 268 268 269 269 268 268 268 269 270 271 271 271 272 273 274 275 276 276 276 277 277 277 277 277 278 278 278 279 279 279 278 278 278 278 278 278 279 279 279 279 278 278 278 278 278 278 278 278 278 279 279
251 250 251 252 251 251 251 251 252 252 251 251 254 254 251 253 256 257 257 257 259 260 261 263 264 265 265 265 264 264 264 264 265 267 268 268 269 269 269 269 270 270 271 272 272 273 273 275 275 275 276 276 277 277 277 278 277 277 278 279 279 279 279 279 279 278 279 279 279 279 279 279 279 279 279 279 278 278 278 278 278 278 278 278 278 279
251 250 250 251 250 250 252 253 253 252 251 251 253 253 253 254 256 257 258 259 261 262 263 265 266 266 266 266 265 265 265 265 266 268 268 268 269 269 270 271 271 272 273 273 274 274 275 276 276 276 276 276 276 277 277 277 278 278 279 279 279 279 279 278 278 278 278 279 279 279 279 279 279 279 279 279 279 278 278 278 278 277 277 278 278 279
250 249 249 251 252 252 254 255 256 255 254 253 254 254 254 255 257 259 261 263 264 265 266 267 267 266 266 266 266 266 267 268 268 269 269 270 270 271 272 273 273 274 274 275 275 275 275 275 275 275 275 275 276 277 277 278 278 278 279 279 279 279 279 278 278 278 279 279 279 279 279 279 279 279 279 279 278 278 278 278 278 278 278 278 278 279
249 249 250 252 252 254 255 256 256 257 258 258 257 256 256 257 258 260 263 265 266 266 266 267 267 267 267 267 268 269 270 270 270 271 271 272 272 273 274 274 274 275 275 275 275 275 275 275 275 275 275 276 276 277 277 278 279 279 279 279 279 279 279 279 279 279 279 279 279 279 279 279 279 279 279 278 278 278 278 278 278 278 278 279 279 279
249 250 251 252 252 253 254 253 253 255 258 257 256 256 256 257 258 261 263 264 265 264 264 266 268 269 269 270 271 271 272 272 272 273 273 273 274 274 274 274 274 274 275 275 275 275 275 275 275 275 276 277 277 278 278 279 279 279 279 279 279 279 279 279 280 280 280 280 280 279 279 279 279 279 279 279 279 279 279 279 279 278 279 279 279 279
249 250 250 250 252 253 252 249 250 254 257 256 254 254 255 257 259 261 263 263 263 263 264 266 268 270 271 272 273 273 272 273 273 273 273 274 274 273 274 274 274 275 275 275 276 276 276 276 277 277 277 278 278 279 279 279 279 279 279 280 280 281 281 281 281 281 280 280 280 280 280 280 279 279 279 279 279 279 280 280 280 279 279 279 280 280